Time,TemperatureF,DewpointF,PressureIn,WindDirection,WindDirectionDegrees,WindSpeedMPH,WindSpeedGustMPH,Humidity,HourlyPrecipIn,Conditions,Clouds,dailyrainin,SolarRadiationWatts/m^2,SoftwareType,DateUTC
2013-02-10 00:10:00,61.2,60.0,30.02,East,101,5.0,8.0,94,0.00,,,0.00,0,weatherlink.com 1.10,2013-02-10 05:10:00,
2013-02-10 00:25:00,61.4,60.0,30.02,ESE,105,3.0,7.0,94,0.00,,,0.00,0,weatherlink.com 1.10,2013-02-10 05:25:00,
2013-02-10 00:40:00,61.6,60.0,30.02,East,88,3.0,7.0,94,0.00,,,0.00,0,weatherlink.com 1.10,2013-02-10 05:40:00,
2013-02-10 00:55:00,61.7,60.0,30.03,ESE,105,2.0,5.0,94,0.00,,,0.00,0,weatherlink.com 1.10,2013-02-10 05:55:00,
2013-02-10 01:10:00,61.7,60.0,30.02,East,88,3.0,5.0,94,0.00,,,0.00,0,weatherlink.com 1.10,2013-02-10 06:10:00,
2013-02-10 01:25:00,61.7,60.0,30.02,ENE,74,0.0,6.0,95,0.01,,,0.01,0,weatherlink.com 1.10,2013-02-10 06:25:00,
2013-02-10 01:40:00,61.5,60.0,30.01,East,87,3.0,5.0,95,0.02,,,0.02,0,weatherlink.com 1.10,2013-02-10 06:40:00,
2013-02-10 01:55:00,61.4,60.0,30.00,SE,144,2.0,5.0,95,0.02,,,0.02,0,weatherlink.com 1.10,2013-02-10 06:55:00,
2013-02-10 02:10:00,61.4,60.0,29.99,ESE,117,3.0,7.0,96,0.02,,,0.02,0,weatherlink.com 1.10,2013-02-10 07:10:00,
2013-02-10 02:25:00,61.5,60.0,29.99,ENE,69,1.0,7.0,96,0.01,,,0.02,0,weatherlink.com 1.10,2013-02-10 07:25:00,
2013-02-10 02:40:00,61.6,61.0,29.98,SE,137,2.0,7.0,96,0.00,,,0.02,0,weatherlink.com 1.10,2013-02-10 07:40:00,
2013-02-10 02:55:00,61.7,61.0,29.97,East,95,3.0,4.0,96,0.00,,,0.02,0,weatherlink.com 1.10,2013-02-10 07:55:00,
2013-02-10 03:10:00,61.9,61.0,29.97,ESE,121,2.0,7.0,96,0.00,,,0.02,0,weatherlink.com 1.10,2013-02-10 08:10:00,
2013-02-10 03:25:00,62.0,61.0,29.96,ESE,109,1.0,7.0,97,0.00,,,0.02,0,weatherlink.com 1.10,2013-02-10 08:25:00,
2013-02-10 03:40:00,62.2,61.0,29.96,ESE,105,2.0,7.0,97,0.00,,,0.02,0,weatherlink.com 1.10,2013-02-10 08:40:00,
2013-02-10 03:55:00,62.5,62.0,29.95,ESE,114,1.0,8.0,97,0.00,,,0.02,0,weatherlink.com 1.10,2013-02-10 08:55:00,
2013-02-10 04:10:00,62.8,62.0,29.93,ESE,123,3.0,9.0,97,0.00,,,0.02,0,weatherlink.com 1.10,2013-02-10 09:10:00,
2013-02-10 04:25:00,63.2,62.0,29.93,ESE,120,5.0,10.0,97,0.00,,,0.02,0,weatherlink.com 1.10,2013-02-10 09:25:00,
2013-02-10 04:40:00,63.6,63.0,29.94,SSE,148,3.0,9.0,97,0.00,,,0.02,0,weatherlink.com 1.10,2013-02-10 09:40:00,
2013-02-10 04:55:00,63.8,63.0,29.94,ESE,116,2.0,7.0,97,0.00,,,0.02,0,weatherlink.com 1.10,2013-02-10 09:55:00,
2013-02-10 05:10:00,64.3,64.0,29.94,SE,126,3.0,7.0,97,0.00,,,0.02,0,weatherlink.com 1.10,2013-02-10 10:10:00,
2013-02-10 05:26:00,64.9,64.0,29.95,SE,130,1.0,8.0,97,0.00,,,0.02,0,weatherlink.com 1.10,2013-02-10 10:26:00,
2013-02-10 05:41:00,65.2,64.0,29.94,SSE,153,5.0,6.0,97,0.01,,,0.03,0,weatherlink.com 1.10,2013-02-10 10:41:00,
2013-02-10 05:56:00,65.4,65.0,29.93,ESE,119,2.0,8.0,97,0.01,,,0.03,0,weatherlink.com 1.10,2013-02-10 10:56:00,
2013-02-10 06:11:00,65.5,65.0,29.93,SE,144,3.0,7.0,97,0.01,,,0.03,0,weatherlink.com 1.10,2013-02-10 11:11:00,
2013-02-10 06:26:00,65.6,65.0,29.93,ESE,120,3.0,11.0,96,0.01,,,0.03,0,weatherlink.com 1.10,2013-02-10 11:26:00,
2013-02-10 06:41:00,65.6,65.0,29.94,SE,142,3.0,10.0,96,0.00,,,0.03,0,weatherlink.com 1.10,2013-02-10 11:41:00,
2013-02-10 06:56:00,65.8,65.0,29.94,SSE,159,4.0,7.0,97,0.00,,,0.03,0,weatherlink.com 1.10,2013-02-10 11:56:00,
2013-02-10 07:11:00,65.9,65.0,29.94,SSE,153,5.0,12.0,96,0.00,,,0.03,0,weatherlink.com 1.10,2013-02-10 12:11:00,
2013-02-10 07:26:00,65.9,65.0,29.94,SE,136,6.0,10.0,96,0.01,,,0.04,0,weatherlink.com 1.10,2013-02-10 12:26:00,
2013-02-10 07:41:00,66.0,65.0,29.91,SE,138,7.0,13.0,96,0.01,,,0.04,0,weatherlink.com 1.10,2013-02-10 12:41:00,
2013-02-10 07:56:00,66.1,65.0,29.92,ESE,122,3.0,13.0,96,0.01,,,0.04,7,weatherlink.com 1.10,2013-02-10 12:56:00,
2013-02-10 08:11:00,66.3,65.0,29.93,SSE,150,5.0,10.0,96,0.00,,,0.04,14,weatherlink.com 1.10,2013-02-10 13:11:00,
2013-02-10 08:26:00,66.6,66.0,29.94,SE,146,5.0,10.0,96,0.00,,,0.04,25,weatherlink.com 1.10,2013-02-10 13:26:00,
2013-02-10 08:41:00,66.8,66.0,29.95,ESE,117,1.0,10.0,96,0.00,,,0.04,18,weatherlink.com 1.10,2013-02-10 13:41:00,
2013-02-10 08:56:00,67.1,66.0,29.95,SE,141,3.0,9.0,96,0.00,,,0.04,32,weatherlink.com 1.10,2013-02-10 13:56:00,
2013-02-10 09:11:00,67.6,67.0,29.95,SE,132,6.0,10.0,96,0.00,,,0.04,33,weatherlink.com 1.10,2013-02-10 14:11:00,
2013-02-10 09:26:00,68.1,67.0,29.95,SSE,154,3.0,10.0,96,0.00,,,0.04,37,weatherlink.com 1.10,2013-02-10 14:26:00,
2013-02-10 09:41:00,68.4,67.0,29.95,SE,137,3.0,8.0,96,0.00,,,0.04,33,weatherlink.com 1.10,2013-02-10 14:41:00,
2013-02-10 09:56:00,68.7,68.0,29.95,SE,128,3.0,10.0,96,0.00,,,0.04,30,weatherlink.com 1.10,2013-02-10 14:56:00,
2013-02-10 10:11:00,69.1,68.0,29.93,SE,140,4.0,8.0,96,0.00,,,0.04,97,weatherlink.com 1.10,2013-02-10 15:11:00,
2013-02-10 10:26:00,69.7,69.0,29.94,SSE,154,1.0,8.0,96,0.00,,,0.04,58,weatherlink.com 1.10,2013-02-10 15:26:00,
2013-02-10 10:41:00,70.7,70.0,29.94,SSE,155,5.0,7.0,96,0.00,,,0.04,139,weatherlink.com 1.10,2013-02-10 15:41:00,
2013-02-10 10:56:00,71.4,70.0,29.94,South,179,3.0,9.0,95,0.00,,,0.04,116,weatherlink.com 1.10,2013-02-10 15:56:00,
2013-02-10 11:11:00,72.1,70.0,29.94,SE,132,4.0,8.0,94,0.00,,,0.04,77,weatherlink.com 1.10,2013-02-10 16:11:00,
2013-02-10 11:26:00,73.0,71.0,29.93,South,177,5.0,8.0,92,0.00,,,0.04,167,weatherlink.com 1.10,2013-02-10 16:26:00,
2013-02-10 11:41:00,73.9,71.0,29.93,South,186,2.0,8.0,90,0.00,,,0.04,214,weatherlink.com 1.10,2013-02-10 16:41:00,
2013-02-10 11:56:00,74.0,71.0,29.93,SSW,194,0.0,7.0,89,0.00,,,0.04,162,weatherlink.com 1.10,2013-02-10 16:56:00,
2013-02-10 12:26:00,75.0,71.0,29.92,South,183,1.0,13.0,87,0.00,,,0.04,139,weatherlink.com 1.10,2013-02-10 17:26:00,
2013-02-10 12:42:00,74.9,71.0,29.92,South,191,7.0,12.0,87,0.00,,,0.04,93,weatherlink.com 1.10,2013-02-10 17:42:00,
2013-02-10 12:56:00,74.7,71.0,29.92,South,175,3.0,6.0,87,0.00,,,0.04,97,weatherlink.com 1.10,2013-02-10 17:56:00,
2013-02-10 13:12:00,74.8,71.0,29.92,SSE,167,5.0,12.0,88,0.00,,,0.04,90,weatherlink.com 1.10,2013-02-10 18:12:00,
2013-02-10 13:26:00,74.8,71.0,29.92,South,182,3.0,12.0,87,0.00,,,0.04,113,weatherlink.com 1.10,2013-02-10 18:26:00,
2013-02-10 13:41:00,74.8,71.0,29.91,WSW,244,2.0,12.0,88,0.00,,,0.04,62,weatherlink.com 1.10,2013-02-10 18:41:00,
2013-02-10 13:56:00,74.7,71.0,29.91,SSW,200,4.0,8.0,88,0.00,,,0.04,51,weatherlink.com 1.10,2013-02-10 18:56:00,
2013-02-10 14:11:00,74.8,71.0,29.90,South,182,5.0,10.0,88,0.00,,,0.04,102,weatherlink.com 1.10,2013-02-10 19:11:00,
2013-02-10 14:26:00,74.2,71.0,29.90,South,179,2.0,9.0,90,0.01,,,0.05,70,weatherlink.com 1.10,2013-02-10 19:26:00,
2013-02-10 14:42:00,73.2,71.0,29.89,South,179,3.0,15.0,92,0.06,,,0.10,213,weatherlink.com 1.10,2013-02-10 19:42:00,
2013-02-10 14:57:00,75.1,73.0,29.87,WSW,239,4.0,11.0,92,0.06,,,0.10,608,weatherlink.com 1.10,2013-02-10 19:57:00,
2013-02-10 15:12:00,76.6,73.0,29.86,South,182,2.0,17.0,88,0.06,,,0.10,603,weatherlink.com 1.10,2013-02-10 20:12:00,
2013-02-10 15:27:00,76.9,72.0,29.87,SSE,163,5.0,17.0,85,0.03,,,0.10,165,weatherlink.com 1.10,2013-02-10 20:27:00,
2013-02-10 15:42:00,76.5,72.0,29.87,SSW,200,6.0,18.0,86,0.00,,,0.10,142,weatherlink.com 1.10,2013-02-10 20:42:00,
2013-02-10 15:57:00,76.2,72.0,29.87,SSW,205,6.0,18.0,86,0.00,,,0.10,213,weatherlink.com 1.10,2013-02-10 20:57:00,
2013-02-10 16:12:00,76.0,72.0,29.87,SSW,207,2.0,14.0,86,0.00,,,0.10,125,weatherlink.com 1.10,2013-02-10 21:12:00,
2013-02-10 16:27:00,75.9,72.0,29.87,SSW,205,2.0,14.0,86,0.00,,,0.10,104,weatherlink.com 1.10,2013-02-10 21:27:00,
2013-02-10 16:42:00,75.8,72.0,29.88,SSW,205,6.0,13.0,87,0.00,,,0.10,149,weatherlink.com 1.10,2013-02-10 21:42:00,
2013-02-10 16:57:00,75.7,72.0,29.88,South,182,2.0,13.0,87,0.00,,,0.10,135,weatherlink.com 1.10,2013-02-10 21:57:00,
2013-02-10 17:12:00,75.7,72.0,29.88,SSW,211,11.0,13.0,87,0.00,,,0.10,142,weatherlink.com 1.10,2013-02-10 22:12:00,
2013-02-10 17:27:00,75.5,71.0,29.88,South,190,4.0,12.0,87,0.00,,,0.10,81,weatherlink.com 1.10,2013-02-10 22:27:00,
2013-02-10 17:42:00,75.4,71.0,29.88,South,188,3.0,12.0,87,0.00,,,0.10,116,weatherlink.com 1.10,2013-02-10 22:42:00,
2013-02-10 17:57:00,75.3,71.0,29.89,South,184,1.0,13.0,87,0.00,,,0.10,63,weatherlink.com 1.10,2013-02-10 22:57:00,
2013-02-10 18:12:00,75.1,71.0,29.89,SW,232,7.0,13.0,87,0.00,,,0.10,21,weatherlink.com 1.10,2013-02-10 23:12:00,
2013-02-10 18:29:00,74.8,71.0,29.90,South,191,2.0,9.0,88,0.00,,,0.10,12,weatherlink.com 1.10,2013-02-10 23:29:00,
2013-02-10 18:42:00,74.5,71.0,29.90,South,188,3.0,9.0,88,0.00,,,0.10,0,weatherlink.com 1.10,2013-02-10 23:42:00,
2013-02-10 18:57:00,74.3,71.0,29.91,South,190,5.0,11.0,88,0.00,,,0.10,0,weatherlink.com 1.10,2013-02-10 23:57:00,
2013-02-10 19:12:00,74.0,71.0,29.91,SSW,205,5.0,9.0,89,0.00,,,0.10,0,weatherlink.com 1.10,2013-02-11 00:12:00,
2013-02-10 19:27:00,73.8,70.0,29.91,SE,131,1.0,7.0,89,0.00,,,0.10,0,weatherlink.com 1.10,2013-02-11 00:27:00,
2013-02-10 19:42:00,73.6,71.0,29.92,SSW,196,4.0,11.0,90,0.00,,,0.10,0,weatherlink.com 1.10,2013-02-11 00:42:00,
2013-02-10 19:57:00,73.4,70.0,29.91,SSW,207,3.0,13.0,90,0.00,,,0.10,0,weatherlink.com 1.10,2013-02-11 00:57:00,
2013-02-10 20:12:00,73.3,70.0,29.92,SSW,196,4.0,8.0,90,0.00,,,0.10,0,weatherlink.com 1.10,2013-02-11 01:12:00,
2013-02-10 20:29:00,73.3,70.0,29.93,SSE,153,1.0,8.0,90,0.00,,,0.10,0,weatherlink.com 1.10,2013-02-11 01:29:00,
2013-02-10 20:43:00,73.1,70.0,29.93,SSW,209,1.0,8.0,91,0.00,,,0.10,0,weatherlink.com 1.10,2013-02-11 01:43:00,
2013-02-10 20:57:00,72.8,70.0,29.94,SW,221,3.0,10.0,91,0.00,,,0.10,0,weatherlink.com 1.10,2013-02-11 01:57:00,
2013-02-10 21:12:00,72.6,70.0,29.94,SSW,211,4.0,9.0,91,0.00,,,0.10,0,weatherlink.com 1.10,2013-02-11 02:12:00,
2013-02-10 21:27:00,72.4,70.0,29.94,SW,236,5.0,7.0,92,0.00,,,0.10,0,weatherlink.com 1.10,2013-02-11 02:27:00,
2013-02-10 21:42:00,72.3,70.0,29.94,SSW,204,1.0,8.0,92,0.00,,,0.10,0,weatherlink.com 1.10,2013-02-11 02:42:00,
2013-02-10 21:57:00,72.3,70.0,29.95,SSW,192,4.0,11.0,92,0.00,,,0.10,0,weatherlink.com 1.10,2013-02-11 02:57:00,
2013-02-10 22:12:00,72.2,70.0,29.95,SW,226,2.0,10.0,93,0.00,,,0.10,0,weatherlink.com 1.10,2013-02-11 03:12:00,
2013-02-10 22:28:00,72.2,70.0,29.95,SSW,194,2.0,6.0,93,0.00,,,0.10,0,weatherlink.com 1.10,2013-02-11 03:28:00,
2013-02-10 22:42:00,72.1,70.0,29.95,WSW,252,6.0,11.0,93,0.00,,,0.10,0,weatherlink.com 1.10,2013-02-11 03:42:00,
2013-02-10 22:57:00,72.0,70.0,29.96,SW,217,9.0,9.0,93,0.00,,,0.10,0,weatherlink.com 1.10,2013-02-11 03:57:00,
2013-02-10 23:13:00,71.9,70.0,29.96,SW,215,1.0,9.0,93,0.00,,,0.10,0,weatherlink.com 1.10,2013-02-11 04:13:00,
2013-02-10 23:27:00,71.9,70.0,29.96,SSW,211,1.0,8.0,93,0.00,,,0.10,0,weatherlink.com 1.10,2013-02-11 04:27:00,
2013-02-10 23:43:00,71.8,70.0,29.97,SSW,209,2.0,8.0,93,0.00,,,0.10,0,weatherlink.com 1.10,2013-02-11 04:43:00,